Location: Bittkow
(50.3000°N, 19.0000°E)
Time: 04:46:30
(UTC+00:00)

Cosmos 1898 Rocket - Pass Details

Date: 19 September 2020
Orbit: 753 x 784 km, 74.0° (Epoch: 20 October)

Event Time Altitude Azimuth Distance (km) Brightness Sun altitude
Rises 03:06:37 0° 334° (NNW) 3,237 6.7 -13.3°
Reaches altitude 10° 03:08:59 10° 334° (NNW) 2,312 5.9 -12.9°
Maximum altitude 03:14:14 78° 249° (WSW) 792 3.4 -12.1°
Drops below altitude 10° 03:19:30 10° 163° (SSE) 2,316 6.0 -11.3°
Sets 03:21:52 0° 162° (SSE) 3,243 6.8 -10.9°
